EZY67LM LSZH-EGKK

Flight info

Callsign EZY67LM
Flight time N/A
Altitude 38000
Route VEBIT T10 TORPA DCT REKLA DCT RLP DCT ROTSI DCT KOTUN DCT NINAL DCT KESAX DCT KUNAV
Aircraft A319/M-SDE2E3FGIJ1RWXYZ/LB1

Departure

Time 2026-05-07 18:15
Airport Zürich Airport (LSZH)

Arrival

Time N/A
Airport London Gatwick Airport (EGKK)
Time Latitude Longitude Altitude Speed Heading
2026-05-07 18:02 47.46103 8.55142 1397 ft 0 kts 65°
2026-05-07 18:05 47.46100 8.55132 1406 ft 4 kts 66°
2026-05-07 18:05 47.46090 8.55095 1407 ft 4 kts 76°
2026-05-07 18:05 47.46087 8.55057 1406 ft 4 kts 103°
2026-05-07 18:06 47.46097 8.55032 1405 ft 1 kts 155°
2026-05-07 18:06 47.46102 8.55029 1405 ft 0 kts 155°
2026-05-07 18:07 47.46101 8.55029 1405 ft 0 kts 155°
2026-05-07 18:08 47.46099 8.55031 1405 ft 0 kts 155°
2026-05-07 18:09 47.46098 8.55031 1394 ft 0 kts 155°
2026-05-07 18:09 47.46086 8.55040 1396 ft 4 kts 155°
2026-05-07 18:10 47.46047 8.55066 1396 ft 9 kts 155°
2026-05-07 18:10 47.45988 8.55133 1392 ft 12 kts 112°
2026-05-07 18:10 47.45984 8.55252 1393 ft 11 kts 98°
2026-05-07 18:10 47.45974 8.55357 1394 ft 10 kts 95°
2026-05-07 18:11 47.45969 8.55450 1395 ft 9 kts 95°
2026-05-07 18:11 47.45964 8.55508 1404 ft 9 kts 97°
2026-05-07 18:11 47.45956 8.55622 1396 ft 8 kts 96°
2026-05-07 18:11 47.45951 8.55695 1398 ft 6 kts 96°
2026-05-07 18:12 47.45947 8.55751 1403 ft 5 kts 96°
2026-05-07 18:12 47.45944 8.55797 1399 ft 5 kts 96°
2026-05-07 18:12 47.45938 8.55873 1400 ft 11 kts 96°
2026-05-07 18:12 47.45928 8.56021 1406 ft 18 kts 96°
2026-05-07 18:13 47.45915 8.56189 1404 ft 11 kts 96°
2026-05-07 18:13 47.45926 8.56294 1406 ft 10 kts 49°
2026-05-07 18:13 47.45996 8.56321 1403 ft 11 kts 12°
2026-05-07 18:13 47.46075 8.56337 1401 ft 12 kts
2026-05-07 18:14 47.46172 8.56346 1398 ft 15 kts 353°
2026-05-07 18:14 47.46270 8.56255 1401 ft 23 kts 317°
2026-05-07 18:14 47.46583 8.55829 1400 ft 97 kts 317°
2026-05-07 18:14 47.47234 8.54937 1412 ft 154 kts 317°
2026-05-07 18:15 47.48049 8.53866 1940 ft 158 kts 323°
2026-05-07 18:15 47.49082 8.53355 2650 ft 157 kts 351°
2026-05-07 18:15 47.50115 8.52890 3364 ft 154 kts 337°
2026-05-07 18:15 47.51042 8.52095 3891 ft 162 kts 325°
2026-05-07 18:16 47.51817 8.50766 4228 ft 186 kts 293°
2026-05-07 18:16 47.51810 8.48763 4470 ft 215 kts 246°
2026-05-07 18:16 47.50821 8.46958 4838 ft 240 kts 221°
2026-05-07 18:16 47.49432 8.45369 5327 ft 263 kts 215°
2026-05-07 18:17 47.47894 8.43834 6167 ft 270 kts 213°
2026-05-07 18:17 47.46323 8.42296 7132 ft 271 kts 214°
2026-05-07 18:17 47.44753 8.40730 8107 ft 273 kts 215°
2026-05-07 18:17 47.43184 8.39128 9093 ft 275 kts 216°
2026-05-07 18:18 47.41621 8.37495 10069 ft 276 kts 217°
2026-05-07 18:18 47.40012 8.35785 10498 ft 297 kts 217°
2026-05-07 18:18 47.38338 8.33860 10999 ft 311 kts 226°
2026-05-07 18:18 47.37162 8.31175 11731 ft 317 kts 249°
2026-05-07 18:19 47.36583 8.28016 12534 ft 321 kts 253°
2026-05-07 18:19 47.35656 8.25008 13321 ft 325 kts 242°
2026-05-07 18:19 47.34573 8.22068 14079 ft 328 kts 241°
2026-05-07 18:19 47.33469 8.19100 14786 ft 332 kts 241°
2026-05-07 18:20 47.32362 8.16093 15506 ft 335 kts 242°
2026-05-07 18:20 47.31259 8.13054 16182 ft 339 kts 242°
2026-05-07 18:20 47.30151 8.09971 16869 ft 342 kts 242°
2026-05-07 18:20 47.29042 8.06854 17547 ft 345 kts 243°
2026-05-07 18:21 47.27993 8.03654 18224 ft 349 kts 249°
2026-05-07 18:21 47.27366 8.00191 18811 ft 353 kts 261°
2026-05-07 18:21 47.27252 7.96570 19402 ft 357 kts 273°
2026-05-07 18:21 47.27570 7.92929 20004 ft 360 kts 277°
2026-05-07 18:22 47.27931 7.89265 20612 ft 363 kts 277°
2026-05-07 18:22 47.28167 7.86826 21010 ft 365 kts 277°
2026-05-07 18:22 47.28642 7.81849 21823 ft 369 kts 277°
2026-05-07 18:22 47.28997 7.78088 22404 ft 372 kts 277°
2026-05-07 18:23 47.29351 7.74299 22996 ft 375 kts 277°
2026-05-07 18:23 47.29707 7.70483 23575 ft 378 kts 277°
2026-05-07 18:23 47.30062 7.66682 24065 ft 381 kts 277°
2026-05-07 18:23 47.30486 7.62824 24564 ft 383 kts 283°
2026-05-07 18:24 47.31264 7.59055 25052 ft 385 kts 287°
2026-05-07 18:24 47.32092 7.55297 25534 ft 387 kts 287°
2026-05-07 18:24 47.32918 7.51510 26009 ft 389 kts 287°
2026-05-07 18:24 47.33743 7.47704 26481 ft 391 kts 286°
2026-05-07 18:25 47.34569 7.43880 26929 ft 393 kts 286°
2026-05-07 18:25 47.35398 7.40035 27383 ft 395 kts 286°
2026-05-07 18:25 47.36234 7.36167 27833 ft 397 kts 286°
2026-05-07 18:25 47.37075 7.32274 28274 ft 399 kts 286°
2026-05-07 18:26 47.37919 7.28358 28715 ft 402 kts 286°
2026-05-07 18:26 47.38763 7.24419 29145 ft 404 kts 286°
2026-05-07 18:26 47.39609 7.20459 29573 ft 406 kts 286°
2026-05-07 18:26 47.40460 7.16479 29992 ft 408 kts 286°
2026-05-07 18:27 47.41139 7.12406 30342 ft 409 kts 281°
2026-05-07 18:27 47.41743 7.08292 30680 ft 411 kts 281°
2026-05-07 18:27 47.42348 7.04153 30993 ft 413 kts 281°
2026-05-07 18:27 47.42751 7.01404 31200 ft 415 kts 281°
2026-05-07 18:28 47.43568 6.95817 31633 ft 417 kts 281°
2026-05-07 18:28 47.44180 6.91635 32069 ft 416 kts 281°
2026-05-07 18:28 47.44787 6.87471 32536 ft 414 kts 281°
2026-05-07 18:28 47.45392 6.83317 32996 ft 413 kts 281°
2026-05-07 18:29 47.45995 6.79181 33450 ft 411 kts 281°
2026-05-07 18:29 47.46592 6.75055 33905 ft 410 kts 281°
2026-05-07 18:29 47.47184 6.70938 34296 ft 409 kts 281°
2026-05-07 18:29 47.47773 6.66830 34634 ft 409 kts 279°
2026-05-07 18:30 47.48157 6.62676 34938 ft 408 kts 275°
2026-05-07 18:30 47.48461 6.58506 35233 ft 408 kts 275°
2026-05-07 18:30 47.48762 6.54329 35531 ft 409 kts 275°
2026-05-07 18:30 47.49059 6.50146 35808 ft 409 kts 275°
2026-05-07 18:31 47.49355 6.45964 36079 ft 409 kts 274°
2026-05-07 18:31 47.49652 6.41775 36343 ft 410 kts 275°
2026-05-07 18:31 47.49951 6.37581 36606 ft 410 kts 274°
2026-05-07 18:31 47.50247 6.33389 36859 ft 410 kts 274°
2026-05-07 18:32 47.50535 6.29245 37098 ft 411 kts 274°
2026-05-07 18:32 47.50826 6.25043 37349 ft 411 kts 274°
2026-05-07 18:32 47.51115 6.20836 37581 ft 411 kts 274°
2026-05-07 18:32 47.51405 6.16627 37810 ft 412 kts 274°
2026-05-07 18:33 47.51695 6.12411 38010 ft 413 kts 274°
2026-05-07 18:33 47.52268 6.03987 38051 ft 411 kts 274°
2026-05-07 18:34 47.52829 5.95585 38050 ft 410 kts 274°
2026-05-07 18:34 47.53834 5.87283 38051 ft 413 kts 288°
2026-05-07 18:35 47.56738 5.79902 38047 ft 421 kts 308°
2026-05-07 18:35 47.60720 5.73493 38054 ft 423 kts 309°
2026-05-07 18:36 47.64707 5.67067 38058 ft 424 kts 309°
2026-05-07 18:36 47.68694 5.60629 38072 ft 424 kts 309°
2026-05-07 18:37 47.72678 5.54176 38061 ft 424 kts 309°
2026-05-07 18:37 47.76657 5.47708 38070 ft 424 kts 309°
2026-05-07 18:38 47.80635 5.41224 38062 ft 424 kts 309°
2026-05-07 18:38 47.84615 5.34729 38059 ft 425 kts 309°
2026-05-07 18:39 47.88590 5.28219 38064 ft 425 kts 309°
2026-05-07 18:39 47.92533 5.21736 38071 ft 425 kts 309°
2026-05-07 18:40 47.96505 5.15205 38070 ft 425 kts 309°
2026-05-07 18:40 48.00476 5.08666 38074 ft 425 kts 309°
2026-05-07 18:41 48.04441 5.02115 38065 ft 425 kts 309°
2026-05-07 18:41 48.08400 4.95549 38065 ft 425 kts 309°
2026-05-07 18:42 48.12356 4.88969 38070 ft 425 kts 309°
2026-05-07 18:42 48.16331 4.82403 38065 ft 426 kts 309°
2026-05-07 18:43 48.20303 4.75809 38062 ft 426 kts 309°
2026-05-07 18:43 48.23589 4.70314 38075 ft 426 kts 308°
2026-05-07 18:44 48.27519 4.63662 38069 ft 426 kts 308°
2026-05-07 18:44 48.31449 4.57001 38073 ft 426 kts 308°
2026-05-07 18:45 48.35390 4.50340 38070 ft 426 kts 308°
2026-05-07 18:45 48.39337 4.43684 38072 ft 427 kts 308°
2026-05-07 18:46 48.43282 4.37004 38070 ft 427 kts 308°
2026-05-07 18:46 48.47223 4.30311 38083 ft 427 kts 308°
2026-05-07 18:47 48.51155 4.23612 38070 ft 426 kts 308°
2026-05-07 18:47 48.55080 4.16909 38066 ft 426 kts 308°
2026-05-07 18:48 48.59001 4.10200 38073 ft 426 kts 308°
2026-05-07 18:48 48.62918 4.03485 38064 ft 426 kts 308°
2026-05-07 18:49 48.66808 3.96803 38061 ft 426 kts 308°
2026-05-07 18:49 48.70715 3.90047 38061 ft 426 kts 308°
2026-05-07 18:50 48.74704 3.83391 38065 ft 428 kts 311°
2026-05-07 18:50 48.78978 3.77093 38066 ft 429 kts 313°
2026-05-07 18:51 48.83316 3.70875 38070 ft 429 kts 313°
2026-05-07 18:51 48.87596 3.64576 38073 ft 428 kts 312°
2026-05-07 18:52 48.91827 3.58199 38075 ft 428 kts 312°
2026-05-07 18:52 48.96050 3.51818 38075 ft 428 kts 312°
2026-05-07 18:53 49.00282 3.45437 38074 ft 428 kts 312°
2026-05-07 18:53 49.04522 3.39057 38088 ft 428 kts 312°
2026-05-07 18:54 49.08750 3.32664 38077 ft 428 kts 312°
2026-05-07 18:54 49.12974 3.26253 38072 ft 428 kts 312°
2026-05-07 18:55 49.17199 3.19835 38067 ft 428 kts 312°
2026-05-07 18:55 49.21421 3.13401 38068 ft 428 kts 312°
2026-05-07 18:56 49.25634 3.06955 38077 ft 428 kts 312°
2026-05-07 18:56 49.29849 3.00504 38082 ft 428 kts 312°
2026-05-07 18:57 49.34061 2.94046 38073 ft 429 kts 312°
2026-05-07 18:57 49.38271 2.87565 38075 ft 429 kts 311°
2026-05-07 18:58 49.42450 2.81110 38079 ft 429 kts 311°
2026-05-07 18:58 49.46650 2.74602 38075 ft 429 kts 311°
2026-05-07 18:59 49.50850 2.68077 38096 ft 429 kts 311°
2026-05-07 18:59 49.55050 2.61537 38088 ft 430 kts 311°
2026-05-07 19:00 49.59244 2.54976 38080 ft 430 kts 311°
2026-05-07 19:00 49.63311 2.48255 38072 ft 428 kts 308°
2026-05-07 19:01 49.67130 2.41218 38074 ft 427 kts 306°
2026-05-07 19:01 49.70906 2.34129 38073 ft 427 kts 307°
2026-05-07 19:02 49.74732 2.27091 38058 ft 428 kts 307°
2026-05-07 19:02 49.76662 2.23571 37790 ft 428 kts 307°
2026-05-07 19:02 49.78587 2.20064 37523 ft 427 kts 307°
2026-05-07 19:02 49.80497 2.16583 37146 ft 422 kts 307°
2026-05-07 19:03 49.82386 2.13134 36673 ft 418 kts 307°
2026-05-07 19:03 49.84258 2.09708 36196 ft 415 kts 307°
2026-05-07 19:03 49.86107 2.06305 35722 ft 411 kts 307°
2026-05-07 19:03 49.87941 2.02921 35252 ft 409 kts 307°
2026-05-07 19:04 49.89761 1.99555 34777 ft 406 kts 307°
2026-05-07 19:04 49.91570 1.96206 34298 ft 404 kts 307°
2026-05-07 19:04 49.93346 1.92918 33766 ft 402 kts 307°
2026-05-07 19:04 49.95136 1.89601 33296 ft 398 kts 307°
2026-05-07 19:05 49.96905 1.86318 32828 ft 395 kts 307°
2026-05-07 19:05 49.98659 1.83060 32369 ft 391 kts 307°
2026-05-07 19:05 50.00394 1.79831 31914 ft 388 kts 307°
2026-05-07 19:05 50.02114 1.76622 31469 ft 385 kts 307°
2026-05-07 19:06 50.03817 1.73433 31030 ft 382 kts 307°
2026-05-07 19:06 50.07259 1.67191 30159 ft 379 kts 313°